Atlantic - Newfoundland: Past 24 Hour Conditions

 

St. John's Int'l Airport

07:30 PM NDT 25 October 2014
This table is a summary of hourly weather conditions for the past 24 hours.
Date / Time
(NDT)
Wind(knots) Conditions Visibility(km) Pressure(kPa) Air tempC) Relative humidity(%) Dew pointC)
25 October 2014
19:30 NE 11 Light Drizzle 0.4 99.5 8 100 8
18:30 NE 12 Light Drizzle 0.4 99.4 8 100 8
17:30 NE 7 Light Drizzle 0.4 99.4 9 100 9
16:30 NE 9 Light Drizzle 0.8 99.4 9 100 9
15:30 NE 10 gust 15 Light Rainshower 0.4 99.5 9 100 9
14:30 ENE 10 Light Rainshower 2 99.5 9 100 9
13:30 ENE 11 Light Rainshower 0.8 99.6 9 100 9
12:30 NNE 11 Light Rainshower 0.4 99.6 9 100 9
11:30 NE 9 Light Rainshower 0.4 99.7 9 100 9
10:30 NE 11 Rainshower 0.4 99.7 8 100 8
9:30 NE 12 Light Rainshower 0.4 99.7 9 100 9
8:30 NE 10 Fog 0.4 99.7 9 100 9
7:30 N 5 Fog 0.8 99.8 9 100 9
6:30 NE 2 Fog 0.4 99.8 10 100 10
5:30 WSW 3 Fog 0.6 99.9 10 100 10
4:30 WNW 5 Fog 0.6 99.9 10 100 10
3:30 WNW 6 Fog 0.6 99.9 10 100 10
2:30 W 5 Fog 0.6 100.0 11 100 11
1:30 WSW 5 Fog 0.8 100.0 10 100 10
0:30 calm Light Drizzle 6 100.1 10 100 10
24 October 2014
23:30 NW 3 Light Drizzle 0.8 100.1 10 100 10
22:30 N 2 Light Drizzle 0.6 100.2 9 100 9
21:30 NNE 4 Light Drizzle 0.6 100.3 9 100 9
20:30 ENE 5 Light Rain 0.8 100.4 10 100 10
19:30 E 7 Rain 2 100.5 9 100 9
 
Map of Atlantic - Newfoundland marine weather areas Southwestern Grand Banks - 44138 Banquereau - 44139 Tail of the Bank - 44140 Nickerson Bank - 44251 Northeast Burgeo Bank - 44255 Blanc-Sablon Airport Cap Whittle Chevery Natashquan Airport Heath Point Miscou Island Grand Étang Ingonish Beach North Mountain St.Paul Island J.A. Douglas McCurdy Sydney Airport Charlottetown Airport East Point North Cape Argentia Bonavista Burgeo Cape Race Corner Brook Daniel's Harbour Englee Ferolle Point La Scie Port aux Basques Rocky Harbour Sagona Island St. Anthony Airport St. John's Int'l Airport St. Lawrence Stephenville Airport Twillingate Winterland Wreckhouse Cartwright Airport Mary's Harbour Grates Cove Pool's Island Marticot Island Long Pond Îles de la Madeleine Airport
Legend: buoyBuoy land stationLand Station